| time (UTC) | temp F | wind direction | speed knots | gust knots | rain 1hr in | rain 24hr in | rain mn in | humidity % | barometer mb |
| 20260903101619 | 72 | 204 | 1.7 | 2.6 | 0.00 | 0.00 | 0.00 | 92 | 1018.8 |
| 20260903100108 | 72 | 198 | 0.9 | 2.6 | 0.00 | 0.00 | 0.00 | 92 | 1018.8 |
| 20260903094622 | 72 | 194 | 1.7 | 3.5 | 0.00 | 0.00 | 0.00 | 92 | 1018.8 |
| 20260903093107 | 72 | 217 | 1.7 | 3.5 | 0.00 | 0.00 | 0.00 | 92 | 1018.9 |
| 20260903091622 | 73 | 216 | 1.7 | 3.5 | 0.00 | 0.00 | 0.00 | 92 | 1018.9 |
| 20260903090121 | 73 | 206 | 0.9 | 3.5 | 0.00 | 0.00 | 0.00 | 92 | 1018.9 |
| 20260903084623 | 73 | 209 | 0.9 | 4.3 | 0.00 | 0.00 | 0.00 | 92 | 1018.8 |
| 20260903083125 | 73 | 205 | 0.9 | 4.3 | 0.00 | 0.00 | 0.00 | 92 | 1018.6 |
| 20260903081621 | 73 | 229 | 1.7 | 3.5 | 0.00 | 0.00 | 0.00 | 92 | 1018.5 |
| 20260903080113 | 73 | 188 | 1.7 | 3.5 | 0.00 | 0.00 | 0.00 | 92 | 1018.7 |
| 20260903074612 | 73 | 0 | 0.0 | 0.0 | 0.00 | 0.00 | 0.00 | 92 | 1018.6 |
| 20260903073122 | 73 | 0 | 0.0 | 0.0 | 0.00 | 0.00 | 0.00 | 92 | 1018.6 |
| 20260903071616 | 73 | 0 | 0.0 | 0.0 | 0.00 | 0.00 | 0.00 | 92 | 1018.6 |
| 20260903070125 | 74 | 0 | 0.0 | 0.0 | 0.00 | 0.00 | 0.00 | 92 | 1018.5 |
| 20260903064610 | 74 | 0 | 0.0 | 3.5 | 0.00 | 0.00 | 0.00 | 92 | 1018.6 |
| 20260903063112 | 74 | 240 | 0.9 | 3.5 | 0.00 | 0.00 | 0.00 | 91 | 1018.5 |
| 20260903061602 | 74 | 215 | 0.9 | 2.6 | 0.00 | 0.00 | 0.00 | 91 | 1018.5 |
| 20260903060108 | 74 | 203 | 0.9 | 3.5 | 0.00 | 0.00 | 0.00 | 91 | 1018.5 |
| 20260903054604 | 75 | 210 | 0.9 | 2.6 | 0.00 | 0.00 | 0.00 | 91 | 1018.5 |
| 20260903053116 | 75 | 221 | 1.7 | 3.5 | 0.00 | 0.00 | 0.00 | 91 | 1018.6 |
| 20260903051611 | 75 | 225 | 0.0 | 2.6 | 0.00 | 0.00 | 0.00 | 91 | 1018.7 |
| 20260903050111 | 75 | 227 | 0.0 | 0.0 | 0.00 | 0.00 | 0.00 | 91 | 1018.5 |
| 20260903044604 | 75 | 0 | 0.9 | 2.6 | 0.00 | 0.00 | 0.00 | 91 | 1018.4 |
| 20260903043114 | 76 | 218 | 0.0 | 3.5 | 0.00 | 0.00 | 0.00 | 90 | 1018.4 |
| 20260903041606 | 76 | 240 | 0.9 | 3.5 | 0.00 | 0.00 | 0.00 | 90 | 1018.5 |
| 20260903040108 | 76 | 248 | 0.9 | 3.5 | 0.00 | 0.00 | 0.00 | 90 | 1018.6 |
| 20260903034608 | 76 | 224 | 1.7 | 3.5 | 0.00 | 0.00 | 0.00 | 90 | 1018.6 |
| 20260903033107 | 77 | 214 | 0.9 | 2.6 | 0.00 | 0.00 | 0.00 | 89 | 1018.6 |
| 20260903031633 | 77 | 0 | 0.0 | 0.0 | 0.00 | 0.00 | 0.00 | 89 | 1018.7 |
| 20260903030106 | 77 | 0 | 0.0 | 2.6 | 0.00 | 0.00 | 0.00 | 89 | 1018.8 |
| 20260903024611 | 77 | 235 | 1.7 | 2.6 | 0.00 | 0.00 | 0.00 | 89 | 1018.7 |
| 20260903023105 | 78 | 180 | 1.7 | 3.5 | 0.00 | 0.00 | 0.00 | 88 | 1018.8 |
| 20260903021606 | 78 | 211 | 1.7 | 3.5 | 0.00 | 0.00 | 0.00 | 88 | 1018.8 |
| 20260903020107 | 79 | 212 | 1.7 | 3.5 | 0.00 | 0.00 | 0.00 | 87 | 1018.7 |
| 20260903014606 | 79 | 225 | 2.6 | 4.3 | 0.00 | 0.00 | 0.00 | 87 | 1018.7 |
| 20260903013102 | 79 | 0 | 0.0 | 3.5 | 0.00 | 0.00 | 0.00 | 86 | 1018.6 |
| 20260903011607 | 80 | 221 | 0.9 | 3.5 | 0.00 | 0.00 | 0.00 | 85 | 1018.5 |
| 20260903010104 | 81 | 228 | 0.9 | 3.5 | 0.00 | 0.00 | 0.00 | 84 | 1018.2 |
| 20260903004609 | 81 | 212 | 0.9 | 3.5 | 0.00 | 0.00 | 0.00 | 83 | 1018.2 |
| 20260903003102 | 82 | 223 | 1.7 | 3.5 | 0.00 | 0.00 | 0.00 | 82 | 1018.1 |
| 20260903001614 | 83 | 0 | 0.9 | 2.6 | 0.00 | 0.00 | 0.00 | 79 | 1018.2 |
| 20260903000104 | 84 | 0 | 0.0 | 2.6 | 0.00 | 0.00 | 0.00 | 77 | 1018.1 |
| 20260902234601 | 86 | 209 | 0.0 | 2.6 | 0.00 | 0.00 | 0.00 | 75 | 1018.0 |
| 20260902233104 | 87 | 229 | 0.9 | 2.6 | 0.00 | 0.00 | 0.00 | 72 | 1017.8 |
| 20260902231559 | 89 | 0 | 0.0 | 2.6 | 0.00 | 0.00 | 0.00 | 68 | 1018.0 |
| 20260902230109 | 90 | 226 | 0.9 | 2.6 | 0.00 | 0.00 | 0.00 | 64 | 1018.0 |
| 20260902224604 | 92 | 158 | 0.0 | 3.5 | 0.00 | 0.00 | 0.00 | 60 | 1018.0 |
| 20260902223107 | 92 | 175 | 0.9 | 4.3 | 0.00 | 0.00 | 0.00 | 55 | 1018.0 |
| 20260902221609 | 93 | 261 | 0.9 | 4.3 | 0.00 | 0.00 | 0.00 | 54 | 1018.2 |
| 20260902220106 | 94 | 229 | 2.6 | 5.2 | 0.00 | 0.00 | 0.00 | 52 | 1018.2 |
| 20260902214607 | 94 | 243 | 1.7 | 4.3 | 0.00 | 0.00 | 0.00 | 49 | 1018.2 |
| 20260902213100 | 94 | 211 | 1.7 | 4.3 | 0.00 | 0.00 | 0.00 | 49 | 1018.2 |
| 20260902211617 | 94 | 132 | 1.7 | 7.0 | 0.00 | 0.00 | 0.00 | 48 | 1018.1 |
| 20260902210119 | 94 | 242 | 0.9 | 5.2 | 0.00 | 0.00 | 0.00 | 49 | 1018.3 |
| 20260902204603 | 95 | 0 | 0.9 | 7.8 | 0.00 | 0.00 | 0.00 | 49 | 1018.3 |
| 20260902203100 | 95 | 224 | 4.3 | 8.7 | 0.00 | 0.00 | 0.00 | 48 | 1018.6 |
| 20260902201613 | 95 | 265 | 1.7 | 7.0 | 0.00 | 0.00 | 0.00 | 49 | 1018.8 |
| 20260902200105 | 95 | 318 | 2.6 | 9.6 | 0.00 | 0.00 | 0.00 | 48 | 1019.0 |
| 20260902194601 | 95 | 170 | 3.5 | 8.7 | 0.00 | 0.00 | 0.00 | 45 | 1018.9 |
| 20260902193109 | 95 | 197 | 3.5 | 7.8 | 0.00 | 0.00 | 0.00 | 48 | 1019.1 |
| 20260902191606 | 94 | 245 | 0.9 | 5.2 | 0.00 | 0.00 | 0.00 | 54 | 1019.2 |
| 20260902190105 | 94 | 194 | 2.6 | 8.7 | 0.00 | 0.00 | 0.00 | 48 | 1019.2 |
| 20260902184602 | 94 | 227 | 1.7 | 7.8 | 0.00 | 0.00 | 0.00 | 50 | 1019.4 |
| 20260902183112 | 94 | 165 | 1.7 | 6.1 | 0.00 | 0.00 | 0.00 | 50 | 1019.6 |
| 20260902181614 | 94 | 0 | 2.6 | 7.0 | 0.00 | 0.00 | 0.00 | 54 | 1019.6 |
| 20260902180117 | 94 | 221 | 1.7 | 8.7 | 0.00 | 0.00 | 0.00 | 52 | 1019.8 |
| 20260902174601 | 93 | 94 | 1.7 | 10.4 | 0.00 | 0.00 | 0.00 | 51 | 1019.9 |
| 20260902173106 | 92 | 161 | 0.9 | 8.7 | 0.00 | 0.00 | 0.00 | 55 | 1020.1 |
| 20260902171606 | 91 | 0 | 0.9 | 7.0 | 0.00 | 0.00 | 0.00 | 55 | 1020.3 |
| 20260902170111 | 92 | 204 | 1.7 | 7.8 | 0.00 | 0.00 | 0.00 | 57 | 1020.6 |
| 20260902164607 | 91 | 0 | 1.7 | 9.6 | 0.00 | 0.00 | 0.00 | 59 | 1020.8 |
| 20260902163103 | 90 | 173 | 0.0 | 4.3 | 0.00 | 0.00 | 0.00 | 65 | 1021.0 |
| 20260902161604 | 90 | 275 | 2.6 | 7.0 | 0.00 | 0.00 | 0.00 | 61 | 1021.3 |
| 20260902160112 | 89 | 0 | 0.9 | 6.1 | 0.00 | 0.00 | 0.00 | 63 | 1021.3 |
| 20260902154601 | 89 | 0 | 1.7 | 5.2 | 0.00 | 0.00 | 0.00 | 65 | 1021.3 |
| 20260902153101 | 88 | 207 | 1.7 | 6.1 | 0.00 | 0.00 | 0.00 | 68 | 1021.3 |
| 20260902151642 | 87 | 208 | 0.9 | 4.3 | 0.00 | 0.00 | 0.00 | 70 | 1021.3 |
| 20260902144613 | 84 | 148 | 1.7 | 6.1 | 0.00 | 0.00 | 0.00 | 75 | 1021.1 |
| 20260902143103 | 82 | 159 | 0.9 | 4.3 | 0.00 | 0.00 | 0.00 | 78 | 1021.1 |
| 20260902141602 | 81 | 169 | 0.9 | 4.3 | 0.00 | 0.00 | 0.00 | 80 | 1021.1 |
| 20260902140100 | 79 | 163 | 0.9 | 3.5 | 0.00 | 0.00 | 0.00 | 83 | 1021.0 |
| 20260902134604 | 77 | 0 | 0.0 | 2.6 | 0.00 | 0.00 | 0.00 | 87 | 1020.9 |
| 20260902133108 | 75 | 154 | 0.9 | 4.3 | 0.00 | 0.00 | 0.00 | 89 | 1020.8 |
| 20260902131601 | 74 | 132 | 0.9 | 2.6 | 0.00 | 0.00 | 0.00 | 91 | 1020.8 |
| 20260902130106 | 73 | 0 | 0.0 | 3.5 | 0.00 | 0.00 | 0.00 | 92 | 1020.8 |
| 20260902124604 | 72 | 215 | 0.9 | 2.6 | 0.00 | 0.00 | 0.00 | 92 | 1020.8 |
| 20260902123101 | 71 | 218 | 0.9 | 3.5 | 0.00 | 0.00 | 0.00 | 93 | 1020.8 |
| 20260902121600 | 70 | 231 | 1.7 | 3.5 | 0.00 | 0.00 | 0.00 | 93 | 1020.8 |
| 20260902120108 | 70 | 202 | 1.7 | 3.5 | 0.00 | 0.00 | 0.00 | 93 | 1020.7 |
| 20260902114604 | 69 | 206 | 0.9 | 2.6 | 0.00 | 0.00 | 0.00 | 92 | 1020.7 |
| 20260902113059 | 69 | 209 | 0.9 | 3.5 | 0.00 | 0.00 | 0.00 | 92 | 1020.5 |
| 20260902111604 | 69 | 0 | 0.9 | 2.6 | 0.00 | 0.00 | 0.00 | 92 | 1020.4 |
| 20260902110108 | 69 | 195 | 0.9 | 3.5 | 0.00 | 0.00 | 0.00 | 92 | 1020.3 |
| 20260902104602 | 70 | 210 | 0.9 | 3.5 | 0.00 | 0.00 | 0.00 | 92 | 1020.4 |
| 20260902103058 | 70 | 230 | 0.0 | 1.7 | 0.00 | 0.00 | 0.00 | 92 | 1020.3 |